Location: Andrest
(43.3200°N, 0.0641°E)
Time: 23:51:15
(UTC+00:00)

SL-8 Rocket - Pass Details

Date: 29 April 2021
Orbit: 958 x 989 km, 82.9° (Epoch: 14 May)

Event Time Altitude Azimuth Distance (km) Brightness Sun altitude
Rises 01:55:15 0° 336° (NNW) 3,705 7.5 -26.2°
Reaches altitude 10° 01:58:45 10° 316° (NW) 2,755 6.5 -25.8°
Enters shadow 02:02:01 16° 285° (WNW) 2,318 5.8 -25.5°
